Weather History for KGCC - August, 2013

Change the Weather History Date:

Thursday, August 1, 2013

  Actual Average Record
Temperature  
Mean Temperature 74 °F 72 °F  
Max Temperature 88 °F 88 °F - ()
Min Temperature 60 °F 57 °F - ()
Degree Days  
Heating Degree Days 0 0  
Month to date heating degree days 0 0  
Since 1 June heating degree days 117 161  
Since 1 July heating degree days 0 19  
Cooling Degree Days 9 8  
Month to date cooling degree days 9 8  
Year to date cooling degree days 281 290  
Since 1 June cooling degree days 273 282  
Growing Degree Days 24 (Base 50)    
Moisture  
Dew Point 52 °F    
Average Humidity 47    
Maximum Humidity 72    
Minimum Humidity 22    
Precipitation  
Precipitation 0.37 in 0.05 in - ()
Month to date precipitation 0.37 0.05  
Year to date precipitation 12.81 9.58  
Sea Level Pressure  
Sea Level Pressure 29.93 in    
Wind  
Wind Speed 8 mph (ESE)    
Max Wind Speed 29 mph    
Max Gust Speed 33 mph    
Visibility 10 miles    
Events Rain , Thunderstorm    
T = Trace of Precipitation, MM = Missing Value Source: NWS Daily Summary

Daily Weather History Graph

Daily Weather History Graph

Search for Another Location

Airport or City:

Trip Planner

Search our weather history database for the weather conditions in past years. The results will help you decide how hot, cold, wet, or windy it might be!

Date:

Astronomy

Aug. 01, 2013 Rise Set
Actual Time 5:49 AM MDT 8:26 PM MDT
Civil Twilight 5:16 AM MDT 8:59 PM MDT
Nautical Twilight 4:34 AM MDT 9:41 PM MDT
Astronomical Twilight 3:47 AM MDT 10:28 PM MDT
Moon 1:26 AM MDT (8/1) 4:39 PM MDT (8/1)
Length of Visible Light 15h 43m
Length of Day
14h 36m
Waning Crescent, 23% of the Moon is Illuminated
Aug 1
Waning Crescent
Aug 6
New
Aug 14
First Quarter
Aug 20
Full
Aug 28
Last Quarter

Hourly Weather History & Observations

Time (MDT) Temp. Dew Point Humidity Pressure Visibility Wind Dir Wind Speed Gust Speed Precip Events Conditions
12:53 AM 63.0 °F 50.0 °F 63% 30.04 in 10.0 mi SSW 3.5 mph - N/A   Clear
1:53 AM 63.0 °F 52.0 °F 67% 30.03 in 10.0 mi Calm Calm - N/A   Clear
2:53 AM 66.0 °F 53.1 °F 63% 29.97 in 10.0 mi SSE 6.9 mph - N/A   Clear
3:53 AM 64.9 °F 53.1 °F 65% 29.98 in 10.0 mi Calm Calm - N/A   Clear
4:53 AM 64.0 °F 53.1 °F 67% 29.96 in 10.0 mi South 9.2 mph - N/A   Clear
5:53 AM 62.1 °F 54.0 °F 75% 29.99 in 10.0 mi NNW 6.9 mph - N/A   Clear
6:53 AM 61.0 °F 55.9 °F 83% 30.00 in 10.0 mi ESE 4.6 mph - 0.00 in Rain Light Rain
7:53 AM 66.0 °F 57.0 °F 73% 30.00 in 10.0 mi Calm Calm - N/A   Clear
8:53 AM 70.0 °F 54.0 °F 57% 30.02 in 10.0 mi Calm Calm - N/A   Partly Cloudy
9:07 AM 71.6 °F 55.4 °F 57% 30.13 in 10.0 mi Variable 3.5 mph - N/A Thunderstorm Partly Cloudy
9:22 AM 71.6 °F 53.6 °F 53% 30.13 in 10.0 mi Variable 3.5 mph - N/A   Mostly Cloudy
9:30 AM 71.6 °F 53.6 °F 53% 30.12 in 10.0 mi East 3.5 mph - N/A Thunderstorm Mostly Cloudy
9:43 AM 71.6 °F 50.0 °F 46% 30.12 in 10.0 mi North 3.5 mph - N/A Thunderstorm Mostly Cloudy
9:53 AM 73.0 °F 53.1 °F 49% 29.98 in 10.0 mi East 4.6 mph - N/A Thunderstorm Scattered Clouds
10:04 AM 73.4 °F 51.8 °F 47% 30.09 in 10.0 mi ESE 9.2 mph - N/A   Partly Cloudy
10:53 AM 77.0 °F 48.9 °F 37% 29.95 in 10.0 mi ESE 5.8 mph - N/A   Clear
11:53 AM 82.0 °F 46.0 °F 28% 29.91 in 10.0 mi Variable 4.6 mph - N/A   Clear
12:53 PM 84.0 °F 46.0 °F 26% 29.89 in 10.0 mi North 10.4 mph - N/A   Clear
1:53 PM 84.9 °F 44.1 °F 24% 29.88 in 10.0 mi North 8.1 mph - N/A   Clear
2:53 PM 86.0 °F 44.1 °F 23% 29.84 in 10.0 mi Calm Calm - N/A   Clear
3:53 PM 88.0 °F 45.0 °F 22% 29.81 in 10.0 mi Variable 6.9 mph - N/A   Clear
4:53 PM 87.1 °F 46.0 °F 24% 29.79 in 10.0 mi ENE 8.1 mph - N/A   Clear
5:53 PM 84.0 °F 48.0 °F 28% 29.78 in 10.0 mi ENE 11.5 mph - N/A   Clear
6:53 PM 79.0 °F 53.1 °F 40% 29.79 in 10.0 mi ENE 11.5 mph - N/A   Clear
7:53 PM 77.0 °F 54.0 °F 45% 29.78 in 10.0 mi ENE 16.1 mph - N/A   Partly Cloudy
8:17 PM 75.2 °F 53.6 °F 47% 29.89 in 10.0 mi ESE 21.9 mph 29.9 mph 0.00 in Rain Light Rain
8:53 PM 73.9 °F 55.0 °F 52% 29.75 in 10.0 mi ENE 11.5 mph 19.6 mph 0.00 in   Clear
9:53 PM 73.9 °F 55.0 °F 52% 29.76 in 10.0 mi SSE 8.1 mph - N/A   Mostly Cloudy
10:53 PM 70.0 °F 59.0 °F 68% 29.73 in 10.0 mi SSE 16.1 mph 24.2 mph N/A   Clear
11:30 PM 69.8 °F 57.2 °F 64% 29.87 in 10.0 mi SSE 17.3 mph 24.2 mph N/A Thunderstorm Overcast
11:51 PM 66.2 °F 59.0 °F 78% 29.95 in 1.8 mi SSW 12.7 mph 24.2 mph 0.13 in Rain , Thunderstorm Heavy Thunderstorms and Rain
11:53 PM 66.0 °F 59.0 °F 78% 29.79 in 1.5 mi South 11.5 mph 24.2 mph 0.23 in Rain , Thunderstorm Heavy Thunderstorms and Rain